| time (UTC) | temp F | wind direction | speed knots | gust knots | rain 1hr in | rain 24hr in | rain mn in | humidity % | barometer mb |
| 20260506184636 | 73 | 190 | 0.9 | 3.5 | 0.00 | 0.00 | 0.00 | 15 | 1008.1 |
| 20260506184131 | 73 | 190 | 1.7 | 4.3 | 0.00 | 0.00 | 0.00 | 21 | 1008.0 |
| 20260506183903 | 72 | 190 | 1.7 | 5.2 | 0.00 | 0.00 | 0.00 | 15 | 1008.2 |
| 20260506183133 | 73 | 190 | 2.6 | 5.2 | 0.00 | 0.00 | 0.00 | 31 | 1008.3 |
| 20260506182633 | 73 | 190 | 3.5 | 6.1 | 0.00 | 0.00 | 0.00 | 35 | 1008.4 |
| 20260506182405 | 73 | 190 | 4.3 | 9.6 | 0.00 | 0.00 | 0.00 | 32 | 1008.3 |
| 20260506181634 | 73 | 190 | 5.2 | 9.6 | 0.00 | 0.00 | 0.00 | 32 | 1008.3 |
| 20260506181128 | 73 | 190 | 4.3 | 11.3 | 0.00 | 0.00 | 0.00 | 35 | 1008.3 |
| 20260506180632 | 73 | 190 | 5.2 | 11.3 | 0.00 | 0.00 | 0.00 | 27 | 1008.3 |
| 20260506180121 | 74 | 190 | 5.2 | 10.4 | 0.00 | 0.00 | 0.00 | 41 | 1008.4 |
| 20260506175851 | 75 | 190 | 4.3 | 8.7 | 0.00 | 0.00 | 0.00 | 46 | 1008.4 |
| 20260506175114 | 76 | 190 | 3.5 | 8.7 | 0.00 | 0.00 | 0.00 | 54 | 1008.5 |
| 20260506174855 | 80 | 190 | 0.9 | 7.0 | 0.00 | 0.00 | 0.00 | 57 | 1008.6 |
| 20260506174114 | 81 | 190 | 0.0 | 0.0 | 0.00 | 0.00 | 0.00 | 27 | 1008.6 |
| 20260506173620 | 81 | 190 | 0.0 | 0.0 | 0.00 | 0.00 | 0.00 | 22 | 1008.7 |
| 20260506173115 | 81 | 190 | 0.0 | 0.0 | 0.00 | 0.00 | 0.00 | 24 | 1008.8 |
| 20260506172610 | 81 | 190 | 0.0 | 0.0 | 0.00 | 0.00 | 0.00 | 21 | 1008.8 |
| 20260506172110 | 81 | 190 | 0.0 | 0.0 | 0.00 | 0.00 | 0.00 | 20 | 1008.9 |
| 20260506171616 | 80 | 190 | 0.0 | 0.0 | 0.00 | 0.00 | 0.00 | 10 | 1008.9 |
| 20260506171110 | 80 | 190 | 0.0 | 0.0 | 0.00 | 0.00 | 0.00 | 7 | 1009.0 |
| 20260506170611 | 80 | 190 | 0.0 | 0.0 | 0.00 | 0.00 | 0.00 | 8 | 1009.1 |
| 20260506170111 | 80 | 190 | 0.0 | 0.0 | 0.00 | 0.00 | 0.00 | 9 | 1009.3 |
| 20260506165611 | 80 | 190 | 0.0 | 0.0 | 0.00 | 0.00 | 0.00 | 1 | 1009.2 |
| 20260506165111 | 80 | 190 | 0.0 | 0.0 | 0.00 | 0.00 | 0.00 | 1 | 1009.2 |
| 20260506164611 | 80 | 190 | 0.0 | 0.0 | 0.00 | 0.00 | 0.00 | 1 | 1009.3 |
| 20260506164117 | 80 | 190 | 0.0 | 0.0 | 0.00 | 0.00 | 0.00 | 1 | 1009.3 |
| 20260506163612 | 80 | 190 | 0.0 | 0.0 | 0.00 | 0.00 | 0.00 | 1 | 1009.3 |
| 20260506163106 | 80 | 190 | 0.0 | 0.0 | 0.00 | 0.00 | 0.00 | 1 | 1009.4 |
| 20260506162838 | 80 | 190 | 0.0 | 0.0 | 0.00 | 0.00 | 0.00 | 1 | 1009.3 |
| 20260506162105 | 79 | 190 | 0.0 | 0.0 | 0.00 | 0.00 | 0.00 | 1 | 1009.4 |
| 20260506161102 | 79 | 190 | 0.0 | 0.0 | 0.00 | 0.00 | 0.00 | 1 | 1009.0 |
| 20260506160603 | 79 | 190 | 0.0 | 0.0 | 0.00 | 0.00 | 0.00 | 1 | 1008.9 |
| 20260506160329 | 79 | 190 | 0.0 | 0.0 | 0.00 | 0.00 | 0.00 | 1 | 1009.0 |
| 20260506155604 | 79 | 190 | 0.0 | 0.0 | 0.00 | 0.00 | 0.00 | 1 | 1008.7 |
| 20260506155057 | 78 | 190 | 0.0 | 0.0 | 0.00 | 0.00 | 0.00 | 1 | 1008.6 |
| 20260506154827 | 78 | 190 | 0.0 | 0.0 | 0.00 | 0.00 | 0.00 | 1 | 1008.6 |
| 20260506154325 | 79 | 190 | 0.0 | 0.0 | 0.00 | 0.00 | 0.00 | 1 | 1008.5 |
| 20260506153552 | 78 | 190 | 0.0 | 0.0 | 0.00 | 0.00 | 0.00 | 1 | 1008.4 |
| 20260506153047 | 78 | 190 | 0.0 | 0.0 | 0.00 | 0.00 | 0.00 | 1 | 1008.1 |
| 20260506152546 | 78 | 190 | 0.0 | 1.7 | 0.00 | 0.00 | 0.00 | 1 | 1008.1 |
| 20260506152316 | 78 | 190 | 0.0 | 1.7 | 0.00 | 0.00 | 0.00 | 1 | 1008.1 |
| 20260506151543 | 78 | 190 | 0.0 | 1.7 | 0.00 | 0.00 | 0.00 | 1 | 1008.2 |
| 20260506151318 | 78 | 190 | 0.0 | 1.7 | 0.00 | 0.00 | 0.00 | 1 | 1008.2 |
| 20260506150545 | 78 | 190 | 0.0 | 1.7 | 0.00 | 0.00 | 0.00 | 1 | 1008.2 |
| 20260506145535 | 78 | 190 | 0.0 | 0.0 | 0.00 | 0.00 | 0.00 | 1 | 1008.6 |
| 20260506145307 | 78 | 190 | 0.0 | 0.0 | 0.00 | 0.00 | 0.00 | 1 | 1008.4 |
| 20260506144531 | 78 | 190 | 0.0 | 0.0 | 0.00 | 0.00 | 0.00 | 1 | 1008.4 |
| 20260506144028 | 78 | 190 | 0.9 | 2.6 | 0.00 | 0.00 | 0.00 | 1 | 1008.3 |
| 20260506143528 | 78 | 190 | 0.9 | 3.5 | 0.00 | 0.00 | 0.00 | 1 | 1008.0 |
| 20260506143027 | 78 | 190 | 1.7 | 3.5 | 0.00 | 0.00 | 0.00 | 1 | 1007.8 |
| 20260506142755 | 78 | 190 | 1.7 | 4.3 | 0.00 | 0.00 | 0.00 | 1 | 1007.9 |
| 20260506142256 | 78 | 190 | 1.7 | 4.3 | 0.00 | 0.00 | 0.00 | 1 | 1007.8 |
| 20260506141523 | 78 | 190 | 1.7 | 3.5 | 0.00 | 0.00 | 0.00 | 1 | 1007.6 |
| 20260506141021 | 78 | 190 | 1.7 | 4.3 | 0.00 | 0.00 | 0.00 | 1 | 1007.4 |
| 20260506140520 | 78 | 190 | 1.7 | 4.3 | 0.00 | 0.00 | 0.00 | 1 | 1007.4 |
| 20260506140016 | 78 | 190 | 0.9 | 2.6 | 0.00 | 0.00 | 0.00 | 1 | 1007.4 |
| 20260506135517 | 78 | 190 | 0.9 | 4.3 | 0.00 | 0.00 | 0.00 | 1 | 1007.4 |
| 20260506135014 | 77 | 190 | 1.7 | 4.3 | 0.00 | 0.00 | 0.00 | 1 | 1007.3 |
| 20260506134515 | 77 | 190 | 1.7 | 4.3 | 0.00 | 0.00 | 0.00 | 1 | 1007.4 |
| 20260506134012 | 77 | 190 | 1.7 | 4.3 | 0.00 | 0.00 | 0.00 | 1 | 1007.4 |
| 20260506133743 | 77 | 190 | 0.9 | 5.2 | 0.00 | 0.00 | 0.00 | 1 | 1007.4 |
| 20260506133237 | 77 | 190 | 0.9 | 5.2 | 0.00 | 0.00 | 0.00 | 1 | 1007.4 |
| 20260506132503 | 77 | 190 | 0.0 | 2.6 | 0.00 | 0.00 | 0.00 | 1 | 1007.5 |
| 20260506131503 | 77 | 190 | 0.9 | 1.7 | 0.00 | 0.00 | 0.00 | 1 | 1007.6 |
| 20260506131232 | 77 | 190 | 0.9 | 1.7 | 0.00 | 0.00 | 0.00 | 1 | 1007.6 |
| 20260506130500 | 0 | 0.0 | 0.0 | 0.00 | 0.00 | 0.00 | 1007.6 | ||
| 20260506130220 | 0 | 0.0 | 0.0 | 0.00 | 0.00 | 0.00 | 1007.5 | ||
| 20260506125625 | 0 | 0.0 | 0.0 | 0.00 | 0.00 | 0.00 | 1007.5 | ||
| 20260506124858 | 0 | 0.0 | 0.0 | 0.00 | 0.00 | 0.00 | 1007.4 | ||
| 20260506124258 | 0 | 0.0 | 0.0 | 0.00 | 0.00 | 0.00 | 1007.4 | ||
| 20260506123748 | 0 | 0.0 | 0.0 | 0.00 | 0.00 | 0.00 | 1007.4 | ||
| 20260506123157 | 0 | 0.0 | 0.0 | 0.00 | 0.00 | 0.00 | 1007.4 | ||
| 20260506122652 | 0 | 0.0 | 0.0 | 0.00 | 0.00 | 0.00 | 1007.3 | ||
| 20260506122059 | 0 | 0.0 | 0.0 | 0.00 | 0.00 | 0.00 | 1007.3 | ||
| 20260506121830 | 0 | 0.0 | 0.0 | 0.00 | 0.00 | 0.00 | 1007.3 | ||
| 20260506121043 | 0 | 0.0 | 0.0 | 0.00 | 0.00 | 0.00 | 1007.3 | ||
| 20260506120722 | 0 | 0.0 | 0.0 | 0.00 | 0.00 | 0.00 | 1007.3 | ||
| 20260506115852 | 0 | 0.0 | 0.0 | 0.00 | 0.00 | 0.00 | 1007.2 | ||
| 20260506115307 | 0 | 0.0 | 0.0 | 0.00 | 0.00 | 0.00 | 1007.1 | ||
| 20260506114759 | 0 | 0.0 | 0.0 | 0.00 | 0.00 | 0.00 | 1007.2 | ||
| 20260506114157 | 76 | 0.0 | 0.0 | 0.00 | 0.00 | 0.00 | 1 | 1007.0 | |
| 20260506113652 | 76 | 190 | 0.9 | 0.0 | 0.00 | 0.00 | 0.00 | 1 | 1007.0 |
| 20260506113058 | 76 | 190 | 0.9 | 2.6 | 0.00 | 0.00 | 0.00 | 1 | 1006.8 |
| 20260506112558 | 76 | 190 | 0.9 | 3.5 | 0.00 | 0.00 | 0.00 | 1 | 1006.8 |
| 20260506112051 | 76 | 190 | 0.9 | 5.2 | 0.00 | 0.00 | 0.00 | 1 | 1006.8 |
| 20260506111548 | 77 | 190 | 0.9 | 5.2 | 0.00 | 0.00 | 0.00 | 1 | 1006.7 |
| 20260506111321 | 77 | 190 | 0.0 | 0.0 | 0.00 | 0.00 | 0.00 | 1 | 1006.8 |
| 20260506110543 | 77 | 190 | 0.0 | 0.0 | 0.00 | 0.00 | 0.00 | 1 | 1006.8 |
| 20260506110311 | 77 | 190 | 0.0 | 0.0 | 0.00 | 0.00 | 0.00 | 1 | 1006.9 |
| 20260506105541 | 77 | 190 | 0.0 | 0.0 | 0.00 | 0.00 | 0.00 | 1 | 1006.8 |
| 20260506105036 | 77 | 190 | 0.0 | 0.0 | 0.00 | 0.00 | 0.00 | 1 | 1006.7 |
| 20260506104536 | 77 | 190 | 0.0 | 0.0 | 0.00 | 0.00 | 0.00 | 1 | 1006.7 |
| 20260506104304 | 77 | 190 | 0.0 | 0.0 | 0.00 | 0.00 | 0.00 | 1 | 1006.6 |
| 20260506103533 | 77 | 190 | 0.9 | 3.5 | 0.00 | 0.00 | 0.00 | 1 | 1006.5 |
| 20260506103030 | 77 | 190 | 0.9 | 3.5 | 0.00 | 0.00 | 0.00 | 1 | 1006.5 |
| 20260506102527 | 77 | 190 | 0.9 | 3.5 | 0.00 | 0.00 | 0.00 | 1 | 1006.3 |
| 20260506101804 | 77 | 190 | 1.7 | 5.2 | 0.00 | 0.00 | 0.00 | 1 | 1006.1 |
| 20260506101020 | 77 | 190 | 2.6 | 7.0 | 0.00 | 0.00 | 0.00 | 1 | 1006.1 |
| 20260506100751 | 77 | 190 | 2.6 | 7.0 | 0.00 | 0.00 | 0.00 | 1 | 1005.9 |
| 20260506100025 | 77 | 190 | 2.6 | 7.0 | 0.00 | 0.00 | 0.00 | 1 | 1005.9 |
| 20260506095519 | 77 | 190 | 2.6 | 7.0 | 0.00 | 0.00 | 0.00 | 1 | 1005.9 |
| 20260506095018 | 77 | 190 | 2.6 | 6.1 | 0.00 | 0.00 | 0.00 | 1 | 1005.9 |
| 20260506094747 | 76 | 190 | 2.6 | 6.1 | 0.00 | 0.00 | 0.00 | 1 | 1005.9 |
| 20260506094017 | 76 | 190 | 2.6 | 6.1 | 0.00 | 0.00 | 0.00 | 1 | 1005.8 |
| 20260506093517 | 76 | 190 | 2.6 | 5.2 | 0.00 | 0.00 | 0.00 | 1 | 1005.8 |
| 20260506093017 | 76 | 190 | 2.6 | 6.1 | 0.00 | 0.00 | 0.00 | 1 | 1005.7 |
| 20260506092748 | 76 | 190 | 3.5 | 7.0 | 0.00 | 0.00 | 0.00 | 1 | 1005.8 |
| 20260506092015 | 76 | 190 | 3.5 | 7.0 | 0.00 | 0.00 | 0.00 | 1 | 1005.8 |
| 20260506091513 | 76 | 190 | 3.5 | 7.0 | 0.00 | 0.00 | 0.00 | 1 | 1005.7 |
| 20260506091011 | 76 | 190 | 3.5 | 8.7 | 0.00 | 0.00 | 0.00 | 1 | 1005.7 |
| 20260506090509 | 76 | 190 | 3.5 | 8.7 | 0.00 | 0.00 | 0.00 | 1 | 1005.7 |
| 20260506090239 | 76 | 190 | 3.5 | 9.6 | 0.00 | 0.00 | 0.00 | 1 | 1005.7 |
| 20260506085510 | 76 | 190 | 3.5 | 9.6 | 0.00 | 0.00 | 0.00 | 1 | 1005.7 |
| 20260506085010 | 76 | 190 | 3.5 | 7.0 | 0.00 | 0.00 | 0.00 | 1 | 1005.7 |
| 20260506084506 | 77 | 190 | 2.6 | 6.1 | 0.00 | 0.00 | 0.00 | 1 | 1005.9 |
| 20260506084008 | 77 | 190 | 3.5 | 7.8 | 0.00 | 0.00 | 0.00 | 1 | 1005.9 |
| 20260506083507 | 77 | 190 | 3.5 | 7.8 | 0.00 | 0.00 | 0.00 | 1 | 1005.8 |
| 20260506083009 | 77 | 190 | 3.5 | 9.6 | 0.00 | 0.00 | 0.00 | 1 | 1005.8 |
| 20260506082505 | 77 | 190 | 3.5 | 9.6 | 0.00 | 0.00 | 0.00 | 1 | 1005.7 |
| 20260506082239 | 77 | 190 | 3.5 | 7.8 | 0.00 | 0.00 | 0.00 | 1 | 1005.7 |
| 20260506081506 | 77 | 190 | 3.5 | 7.8 | 0.00 | 0.00 | 0.00 | 1 | 1005.8 |
| 20260506081005 | 77 | 190 | 3.5 | 7.8 | 0.00 | 0.00 | 0.00 | 1 | 1005.7 |
| 20260506080505 | 77 | 190 | 4.3 | 8.7 | 0.00 | 0.00 | 0.00 | 1 | 1005.6 |
| 20260506073234 | 77 | 190 | 3.5 | 7.8 | 0.00 | 0.00 | 0.00 | 1 | 1006.2 |
| 20260506072456 | 77 | 190 | 3.5 | 7.8 | 0.00 | 0.00 | 0.00 | 1 | 1006.5 |
| 20260506071958 | 77 | 190 | 4.3 | 10.4 | 0.00 | 0.00 | 0.00 | 1 | 1006.4 |
| 20260506071457 | 77 | 190 | 3.5 | 10.4 | 0.00 | 0.00 | 0.00 | 1 | 1006.4 |
| 20260506070956 | 77 | 190 | 3.5 | 6.1 | 0.00 | 0.00 | 0.00 | 1 | 1006.5 |
| 20260506070457 | 77 | 190 | 3.5 | 7.0 | 0.00 | 0.00 | 0.00 | 1 | 1006.6 |
| 20260506062444 | 76 | 190 | 4.3 | 9.6 | 0.00 | 0.00 | 0.00 | 1 | 1006.7 |
| 20260506061439 | 76 | 190 | 4.3 | 7.8 | 0.00 | 0.00 | 0.00 | 1 | 1006.7 |
| 20260506060940 | 76 | 190 | 4.3 | 7.8 | 0.00 | 0.00 | 0.00 | 1 | 1006.7 |
| 20260506060440 | 76 | 190 | 3.5 | 7.8 | 0.00 | 0.00 | 0.00 | 1 | 1006.7 |
| 20260506050933 | 76 | 190 | 3.5 | 7.0 | 0.00 | 0.00 | 0.00 | 1 | 1006.8 |
| 20260506050428 | 76 | 190 | 2.6 | 6.1 | 0.00 | 0.00 | 0.00 | 1 | 1006.8 |
| 20260506044922 | 76 | 190 | 3.5 | 6.1 | 0.00 | 0.00 | 0.00 | 1 | 1006.8 |
| 20260506044419 | 77 | 190 | 3.5 | 6.1 | 0.00 | 0.00 | 0.00 | 1 | 1006.8 |
| 20260506043918 | 77 | 190 | 3.5 | 6.1 | 0.00 | 0.00 | 0.00 | 1 | 1006.9 |
| 20260506043420 | 77 | 190 | 3.5 | 7.8 | 0.00 | 0.00 | 0.00 | 1 | 1006.8 |
| 20260506042918 | 77 | 190 | 3.5 | 7.8 | 0.00 | 0.00 | 0.00 | 1 | 1006.8 |
| 20260506042418 | 76 | 190 | 3.5 | 7.8 | 0.00 | 0.00 | 0.00 | 1 | 1006.8 |
| 20260506041918 | 77 | 190 | 4.3 | 7.8 | 0.00 | 0.00 | 0.00 | 1 | 1006.6 |
| 20260506041420 | 77 | 190 | 5.2 | 11.3 | 0.00 | 0.00 | 0.00 | 1 | 1006.5 |
| 20260506040918 | 77 | 190 | 5.2 | 11.3 | 0.00 | 0.00 | 0.00 | 1 | 1006.4 |
| 20260506040418 | 77 | 190 | 5.2 | 9.6 | 0.00 | 0.00 | 0.00 | 1 | 1006.4 |
| 20260506040151 | 77 | 190 | 6.1 | 9.6 | 0.00 | 0.00 | 0.00 | 1 | 1006.3 |
| 20260506035413 | 77 | 190 | 6.1 | 10.4 | 0.00 | 0.00 | 0.00 | 1 | 1006.3 |
| 20260506034913 | 77 | 190 | 5.2 | 10.4 | 0.00 | 0.00 | 0.00 | 1 | 1006.1 |
| 20260506034413 | 77 | 190 | 4.3 | 10.4 | 0.00 | 0.00 | 0.00 | 1 | 1006.1 |
| 20260506033909 | 77 | 190 | 4.3 | 10.4 | 0.00 | 0.00 | 0.00 | 1 | 1006.1 |
| 20260506033641 | 77 | 190 | 4.3 | 9.6 | 0.00 | 0.00 | 0.00 | 1 | 1006.1 |
| 20260506033412 | 77 | 190 | 4.3 | 9.6 | 0.00 | 0.00 | 0.00 | 1 | 1006.1 |
| 20260506033139 | 77 | 190 | 3.5 | 9.6 | 0.00 | 0.00 | 0.00 | 1 | 1006.1 |
| 20260506032413 | 77 | 190 | 3.5 | 7.0 | 0.00 | 0.00 | 0.00 | 1 | 1006.2 |
| 20260506031909 | 77 | 190 | 4.3 | 7.8 | 0.00 | 0.00 | 0.00 | 1 | 1006.1 |
| 20260506031404 | 77 | 190 | 3.5 | 7.8 | 0.00 | 0.00 | 0.00 | 1 | 1006.1 |
| 20260506030904 | 77 | 190 | 3.5 | 7.0 | 0.00 | 0.00 | 0.00 | 1 | 1005.9 |
| 20260506030404 | 77 | 190 | 4.3 | 8.7 | 0.00 | 0.00 | 0.00 | 1 | 1005.9 |
| 20260506025903 | 77 | 190 | 4.3 | 8.7 | 0.00 | 0.00 | 0.00 | 1 | 1006.0 |
| 20260506025404 | 77 | 190 | 5.2 | 9.6 | 0.00 | 0.00 | 0.00 | 1 | 1006.0 |
| 20260506024917 | 78 | 190 | 5.2 | 9.6 | 0.00 | 0.00 | 0.00 | 1 | 1006.0 |
| 20260506024404 | 78 | 190 | 5.2 | 11.3 | 0.00 | 0.00 | 0.00 | 1 | 1005.9 |
| 20260506023904 | 78 | 190 | 5.2 | 11.3 | 0.00 | 0.00 | 0.00 | 1 | 1005.9 |
| 20260506023402 | 78 | 190 | 4.3 | 8.7 | 0.00 | 0.00 | 0.00 | 1 | 1005.7 |
| 20260506022901 | 78 | 190 | 4.3 | 8.7 | 0.00 | 0.00 | 0.00 | 1 | 1005.6 |
| 20260506022400 | 78 | 190 | 4.3 | 8.7 | 0.00 | 0.00 | 0.00 | 1 | 1005.5 |
| 20260506022134 | 78 | 190 | 4.3 | 7.8 | 0.00 | 0.00 | 0.00 | 2 | 1005.5 |
| 20260506021404 | 78 | 190 | 4.3 | 7.8 | 0.00 | 0.00 | 0.00 | 3 | 1005.4 |
| 20260506020856 | 78 | 190 | 3.5 | 7.0 | 0.00 | 0.00 | 0.00 | 4 | 1005.5 |
| 20260506020635 | 78 | 190 | 4.3 | 7.8 | 0.00 | 0.00 | 0.00 | 6 | 1005.4 |
| 20260506015858 | 78 | 190 | 3.5 | 7.8 | 0.00 | 0.00 | 0.00 | 7 | 1005.3 |
| 20260506015404 | 78 | 190 | 3.5 | 9.6 | 0.00 | 0.00 | 0.00 | 10 | 1005.2 |
| 20260506014901 | 78 | 190 | 4.3 | 9.6 | 0.00 | 0.00 | 0.00 | 12 | 1005.1 |
| 20260506014627 | 78 | 190 | 4.3 | 8.7 | 0.00 | 0.00 | 0.00 | 13 | 1005.0 |
| 20260506013857 | 78 | 190 | 4.3 | 8.7 | 0.00 | 0.00 | 0.00 | 15 | 1004.9 |
| 20260506013402 | 78 | 190 | 3.5 | 7.0 | 0.00 | 0.00 | 0.00 | 17 | 1004.8 |
| 20260506012905 | 78 | 190 | 4.3 | 11.3 | 0.00 | 0.00 | 0.00 | 19 | 1004.8 |
| 20260506012633 | 78 | 190 | 4.3 | 11.3 | 0.00 | 0.00 | 0.00 | 22 | 1004.7 |
| 20260506012124 | 78 | 190 | 4.3 | 9.6 | 0.00 | 0.00 | 0.00 | 25 | 1004.6 |
| 20260506011401 | 79 | 190 | 4.3 | 7.8 | 0.00 | 0.00 | 0.00 | 27 | 1004.5 |
| 20260506010900 | 79 | 190 | 4.3 | 9.6 | 0.00 | 0.00 | 0.00 | 29 | 1004.5 |
| 20260506010625 | 79 | 190 | 5.2 | 9.6 | 0.00 | 0.00 | 0.00 | 31 | 1004.4 |
| 20260506005901 | 79 | 190 | 5.2 | 10.4 | 0.00 | 0.00 | 0.00 | 33 | 1004.4 |
| 20260506005347 | 79 | 190 | 5.2 | 10.4 | 0.00 | 0.00 | 0.00 | 34 | 1004.3 |
| 20260506004847 | 79 | 190 | 4.3 | 10.4 | 0.00 | 0.00 | 0.00 | 35 | 1004.3 |
| 20260506004349 | 80 | 190 | 4.3 | 10.4 | 0.00 | 0.00 | 0.00 | 37 | 1004.3 |
| 20260506003852 | 80 | 190 | 4.3 | 8.7 | 0.00 | 0.00 | 0.00 | 39 | 1004.2 |
| 20260506003348 | 80 | 190 | 4.3 | 8.7 | 0.00 | 0.00 | 0.00 | 42 | 1004.1 |
| 20260506002848 | 80 | 190 | 5.2 | 8.7 | 0.00 | 0.00 | 0.00 | 43 | 1004.2 |
| 20260506001843 | 80 | 190 | 5.2 | 8.7 | 0.00 | 0.00 | 0.00 | 46 | 1004.1 |
| 20260506001342 | 80 | 190 | 4.3 | 8.7 | 0.00 | 0.00 | 0.00 | 47 | 1004.2 |
| 20260506000842 | 81 | 190 | 4.3 | 8.7 | 0.00 | 0.00 | 0.00 | 48 | 1004.3 |
| 20260506000342 | 81 | 190 | 5.2 | 10.4 | 0.00 | 0.00 | 0.00 | 50 | 1004.3 |
| 20260505235844 | 81 | 190 | 6.1 | 10.4 | 0.00 | 0.00 | 0.00 | 52 | 1004.3 |
| 20260505235353 | 81 | 190 | 5.2 | 10.4 | 0.00 | 0.00 | 0.00 | 53 | 1004.1 |
| 20260505235110 | 81 | 190 | 5.2 | 9.6 | 0.00 | 0.00 | 0.00 | 52 | 1004.1 |
| 20260505234340 | 81 | 190 | 6.1 | 12.2 | 0.00 | 0.00 | 0.00 | 50 | 1004.1 |
| 20260505233838 | 81 | 190 | 5.2 | 12.2 | 0.00 | 0.00 | 0.00 | 52 | 1004.1 |
| 20260505233338 | 81 | 190 | 5.2 | 10.4 | 0.00 | 0.00 | 0.00 | 53 | 1004.0 |
| 20260505232841 | 81 | 190 | 6.1 | 10.4 | 0.00 | 0.00 | 0.00 | 54 | 1003.9 |
| 20260505232337 | 81 | 190 | 6.1 | 13.0 | 0.00 | 0.00 | 0.00 | 55 | 1004.1 |
| 20260505231830 | 82 | 190 | 7.0 | 13.0 | 0.00 | 0.00 | 0.00 | 55 | 1004.1 |
| 20260505231332 | 82 | 190 | 6.1 | 12.2 | 0.00 | 0.00 | 0.00 | 57 | 1004.0 |
| 20260505230832 | 82 | 190 | 5.2 | 10.4 | 0.00 | 0.00 | 0.00 | 54 | 1003.9 |
| 20260505230333 | 82 | 190 | 6.1 | 10.4 | 0.00 | 0.00 | 0.00 | 55 | 1003.8 |
| 20260505225832 | 82 | 190 | 5.2 | 9.6 | 0.00 | 0.00 | 0.00 | 56 | 1003.7 |
| 20260505225332 | 82 | 190 | 6.1 | 11.3 | 0.00 | 0.00 | 0.00 | 57 | 1003.9 |
| 20260505224829 | 82 | 190 | 6.1 | 12.2 | 0.00 | 0.00 | 0.00 | 58 | 1003.9 |
| 20260505224331 | 82 | 190 | 6.1 | 12.2 | 0.00 | 0.00 | 0.00 | 59 | 1003.9 |
| 20260505223828 | 83 | 190 | 6.1 | 11.3 | 0.00 | 0.00 | 0.00 | 59 | 1003.8 |
| 20260505223604 | 83 | 190 | 6.1 | 11.3 | 0.00 | 0.00 | 0.00 | 58 | 1003.9 |
| 20260505222829 | 83 | 190 | 7.0 | 12.2 | 0.00 | 0.00 | 0.00 | 59 | 1004.1 |
| 20260505222331 | 84 | 190 | 7.0 | 12.2 | 0.00 | 0.00 | 0.00 | 61 | 1004.0 |
| 20260505222113 | 84 | 190 | 7.0 | 13.9 | 0.00 | 0.00 | 0.00 | 61 | 1003.9 |
| 20260505221331 | 84 | 190 | 7.8 | 13.9 | 0.00 | 0.00 | 0.00 | 62 | 1003.9 |
| 20260505220324 | 84 | 190 | 7.0 | 13.0 | 0.00 | 0.00 | 0.00 | 62 | 1003.8 |
| 20260505215825 | 85 | 190 | 7.0 | 13.9 | 0.00 | 0.00 | 0.00 | 62 | 1004.0 |
| 20260505215556 | 85 | 190 | 7.0 | 13.9 | 0.00 | 0.00 | 0.00 | 62 | 1004.1 |
| 20260505214828 | 85 | 190 | 7.0 | 13.9 | 0.00 | 0.00 | 0.00 | 61 | 1004.0 |
| 20260505214326 | 85 | 190 | 7.0 | 13.9 | 0.00 | 0.00 | 0.00 | 61 | 1004.0 |
| 20260505213821 | 84 | 190 | 6.1 | 13.0 | 0.00 | 0.00 | 0.00 | 61 | 1004.0 |
| 20260505213322 | 84 | 190 | 6.1 | 13.0 | 0.00 | 0.00 | 0.00 | 61 | 1004.1 |
| 20260505212821 | 85 | 190 | 6.1 | 13.0 | 0.00 | 0.00 | 0.00 | 62 | 1004.2 |
| 20260505212554 | 85 | 190 | 6.1 | 13.0 | 0.00 | 0.00 | 0.00 | 62 | 1004.3 |
| 20260505211319 | 85 | 190 | 6.1 | 13.9 | 0.00 | 0.00 | 0.00 | 62 | 1004.4 |
| 20260505210815 | 85 | 190 | 6.1 | 12.2 | 0.00 | 0.00 | 0.00 | 62 | 1004.5 |
| 20260505210317 | 85 | 190 | 6.1 | 12.2 | 0.00 | 0.00 | 0.00 | 62 | 1004.6 |
| 20260505210044 | 85 | 190 | 5.2 | 11.3 | 0.00 | 0.00 | 0.00 | 62 | 1004.7 |
| 20260505205541 | 85 | 190 | 6.1 | 13.0 | 0.00 | 0.00 | 0.00 | 62 | 1004.7 |
| 20260505204811 | 84 | 190 | 7.0 | 15.6 | 0.00 | 0.00 | 0.00 | 62 | 1004.8 |
| 20260505204312 | 84 | 190 | 7.0 | 13.9 | 0.00 | 0.00 | 0.00 | 62 | 1004.8 |
| 20260505203804 | 84 | 190 | 7.0 | 13.9 | 0.00 | 0.00 | 0.00 | 62 | 1004.9 |
| 20260505203304 | 85 | 190 | 7.0 | 10.4 | 0.00 | 0.00 | 0.00 | 62 | 1005.0 |
| 20260505202803 | 84 | 190 | 6.1 | 11.3 | 0.00 | 0.00 | 0.00 | 61 | 1005.0 |
| 20260505202306 | 84 | 190 | 6.1 | 11.3 | 0.00 | 0.00 | 0.00 | 61 | 1005.1 |
| 20260505201801 | 84 | 190 | 6.1 | 11.3 | 0.00 | 0.00 | 0.00 | 62 | 1005.3 |
| 20260505201259 | 85 | 190 | 6.1 | 11.3 | 0.00 | 0.00 | 0.00 | 61 | 1005.3 |
| 20260505200756 | 85 | 190 | 6.1 | 13.0 | 0.00 | 0.00 | 0.00 | 61 | 1005.3 |
| 20260505195756 | 85 | 190 | 7.0 | 11.3 | 0.00 | 0.00 | 0.00 | 61 | 1005.3 |
| 20260505195256 | 85 | 190 | 7.0 | 13.9 | 0.00 | 0.00 | 0.00 | 61 | 1005.3 |
| 20260505194758 | 85 | 190 | 7.0 | 13.9 | 0.00 | 0.00 | 0.00 | 61 | 1005.3 |
| 20260505194530 | 85 | 190 | 7.0 | 11.3 | 0.00 | 0.00 | 0.00 | 60 | 1005.5 |
| 20260505194028 | 84 | 190 | 6.1 | 11.3 | 0.00 | 0.00 | 0.00 | 59 | 1005.5 |
| 20260505193256 | 84 | 190 | 5.2 | 11.3 | 0.00 | 0.00 | 0.00 | 58 | 1005.6 |
| 20260505192756 | 83 | 190 | 5.2 | 11.3 | 0.00 | 0.00 | 0.00 | 57 | 1005.8 |
| 20260505192300 | 83 | 190 | 6.1 | 12.2 | 0.00 | 0.00 | 0.00 | 54 | 1005.9 |
| 20260505191257 | 83 | 190 | 6.1 | 12.2 | 0.00 | 0.00 | 0.00 | 57 | 1005.9 |
| 20260505190756 | 83 | 190 | 6.1 | 11.3 | 0.00 | 0.00 | 0.00 | 59 | 1006.0 |
| 20260505190257 | 83 | 190 | 6.1 | 10.4 | 0.00 | 0.00 | 0.00 | 55 | 1006.1 |
| 20260505185756 | 83 | 190 | 6.1 | 10.4 | 0.00 | 0.00 | 0.00 | 55 | 1006.1 |
| 20260505185256 | 82 | 190 | 5.2 | 10.4 | 0.00 | 0.00 | 0.00 | 56 | 1006.2 |